Regional Weather Roundup
Issued by NWS

Home | Current Version | Previous Version | Text Only | Print | Product List | Glossary Off
Versions: 1 2 3 4 5 6 7 8 9 10 11 12 13 14 15 16 17 18 19 20 21 22 23 24 25 26 27 28 29 30 31 32 33 34 35 36 37 38 39 40 41 42 43 44 45 46 47 48 49 50

045
ASUS44 KLIX 260001
RWRLA
LOUISIANA WEATHER ROUNDUP
NATIONAL WEATHER SERVICE NEW ORLEANS LA
600 PM CST TUE NOV 25 2014

NOTE: "FAIR" INDICATES FEW OR NO CLOUDS BELOW 12,000 FEET WITH NO
      SIGNIFICANT WEATHER AND/OR OBSTRUCTIONS TO VISIBILITY.
      SKY/WX - SKY CONDITION AND SIGNIFICANT WEATHER.
      TMP - AIR TEMPERATURE.    DP   - DEWPOINT TEMPERATURE.
      RH  - RELATIVE HUMIDITY.  PRES - PRESSURE.
      HX  - HEAT INDEX.         WCI  - WIND CHILL INDEX.

*  THESE STATIONS ARE NOT NWS OR FAA STATIONS AND ARE NOT UNDER
   NWS QUALITY CONTROL.

LAZ040-048-061>063-065-066-069-260100-
SOUTHEAST LOUISIANA

CITY           SKY/WX    TMP DP  RH WIND       PRES   REMARKS
N.O. AUDUBON     N/A     55  36  48 MISG        N/A
6HR MIN TEMP:  54; 6HR MAX TEMP:  58;

N.O. INTL ARPT CLOUDY    54  33  45 NW13G20   30.17R
6HR MIN TEMP:  54; 6HR MAX TEMP:  58; 6HR PCP: TRACE;

N.O. LAKEFRONT CLOUDY    55  35  47 NW18      30.17R
6HR MIN TEMP:  55; 6HR MAX TEMP:  58;

N.O. DOWNTOWN* MOCLDY    55  30  38 NW6       30.17R
6HR MIN TEMP:  55; 6HR MAX TEMP:  57;

SLIDELL        CLOUDY    51  36  56 VRB5      30.17R
6HR MIN TEMP:  51; 6HR MAX TEMP:  56; 6HR PCP: TRACE;

BATON ROUGE    MOCLDY    49  31  49 NW3       30.22R
6HR MIN TEMP:  49; 6HR MAX TEMP:  57;

BOOTHVILLE     CLOUDY    55  38  52 N13       30.15R
6HR MIN TEMP:  55; 6HR MAX TEMP:  58;

BELLE CHASSE   CLOUDY    55  32  41 N7        30.15R
6HR MIN TEMP:  54; 6HR MAX TEMP:  58;

BOGALUSA*        N/A     51  33  50 N7        30.19R
6HR MIN TEMP:  51; 6HR MAX TEMP:  56;

NEW ROADS*     NOT AVBL
GONZALES*      NOT AVBL
HAMMOND*       NOT AVBL
HOUMA*         NOT AVBL
PORT FOURCHON* MOCLDY    55  37  50 NW10      30.20R

$$

LAZ041-044-053-054-260100-
SOUTHWEST LOUISIANA

CITY           SKY/WX    TMP DP  RH WIND       PRES   REMARKS
LAKE CHARLES   CLEAR     47  38  71 NW3       30.23R
6HR MIN TEMP:  47; 6HR MAX TEMP:  60;

LAFAYETTE      CLEAR     48  33  56 N5        30.23R
6HR MIN TEMP:  48; 6HR MAX TEMP:  56;

PATTERSON      CLOUDY    52  34  50 NW7       30.23R
6HR MIN TEMP:  52; 6HR MAX TEMP:  55;

SALT POINT       N/A     57  34  41 NW8       30.21R
6HR MIN TEMP:  57; 6HR MAX TEMP:  60;

NEW IBERIA     PTCLDY    48  35  60 NW5       30.24R
6HR MIN TEMP:  47; 6HR MAX TEMP:  58;

CHENAULT AIRPK NOT AVBL

$$

LAZ027-028-260100-
CENTRAL LOUISIANA

CITY           SKY/WX    TMP DP  RH WIND       PRES   REMARKS
FORT POLK      CLEAR     47  39  74 SE2       30.22R
6HR MIN TEMP:  47; 6HR MAX TEMP:  59;

ALEXANDRIA INT CLEAR     46  34  62 CALM      30.22R
6HR MIN TEMP:  46; 6HR MAX TEMP:  58;

ALEXANDRIA     CLEAR     42  38  85 CALM      30.22R
6HR MIN TEMP:  42; 6HR MAX TEMP:  56;


$$

LAZ001-002-260100-
NORTHWEST LOUISIANA

CITY           SKY/WX    TMP DP  RH WIND       PRES   REMARKS
SHREVEPORT     PTCLDY    49  33  54 S5        30.18R
6HR MIN TEMP:  47; 6HR MAX TEMP:  61;

BARKSDALE AFB  CLEAR     47  31  53 SE3       30.19R
6HR MIN TEMP:  47; 6HR MAX TEMP:  60;

DTN SHREVEPORT CLEAR     51  25  36 SE5       30.18S
6HR MIN TEMP:  51; 6HR MAX TEMP:  60;


$$

LAZ014-016-260100-
NORTHEAST LOUISIANA

CITY           SKY/WX    TMP DP  RH WIND       PRES   REMARKS
MONROE         CLEAR     43  34  70 CALM      30.23R
6HR MIN TEMP:  41; 6HR MAX TEMP:  56;

TALLULAH       PTCLDY    41  31  67 N3        30.21S
6HR MIN TEMP:  41; 6HR MAX TEMP:  52;


$$




USA.gov is the U.S. government's official web portal to all federal, state and local government web resources and services.